Regional Weather Roundup
Issued by NWS Midland/Odessa, TX

Home | Current Version | Previous Version | Text Only | Print | Product List | Glossary On
Versions: 1 2 3 4 5 6 7 8 9 10 11 12 13 14 15 16 17 18 19 20 21 22 23 24 25 26 27 28 29 30 31 32 33 34 35 36 37 38 39 40 41 42 43 44 45 46 47 48 49 50
000
ASUS44 KMAF 212001
RWRMAF
MIDLAND AREA WEATHER ROUNDUP
NATIONAL WEATHER SERVICE MIDLAND TX
300 PM CDT SAT APR 21 2018

...IN SOUTHWEST TEXAS AND SOUTHEAST NEW MEXICO...

CITY           SKY/WX    TMP DP  RH WIND       PRES   REMARKS
ALPINE         SUNNY     76  11   8 W15G28    30.09S
ANDREWS        FAIR      73  26  17 NW21G29   30.00R
ARTESIA        MOSUNNY   72  25  17 NW14G25   30.02S
BIG SPRING     MOSUNNY   75  37  24 NW20G30   29.98R
CARLSBAD       SUNNY     73  22  14 NW16G26   30.00F
DRYDEN           N/A     84  19   9 W14G22    29.91F
FORT STOCKTON  SUNNY     76  21  12 NW13G31   29.99F
GUAD PASS      NOT AVBL
HOBBS          MOSUNNY   72  25  17 NW23G30   30.02R
LAMESA         CLOUDY    68  43  40 N24G38    30.01R
MARFA            N/A     72  11   9 W20G28    30.09F
MIDLAND AIRPK    N/A     78  24  13 NW16G25   29.97S
MIDLAND INTL   SUNNY     79  26  14 W17G29    29.97R
ODESSA         SUNNY     76  21  12 NW22G31   29.98R
PECOS          SUNNY     75  26  15 N7        29.99S
PRESIDIO       FAIR      82  15   8 W17G25    30.01F
SEMINOLE       SUNNY     70  35  27 N17G29    30.02R
SNYDER         PTSUNNY   75  42  31 NW22      29.93R
WINK           SUNNY     76  21  12 NW15G28   29.98S
$$
...OTHER STATIONS IN TEXAS...

CITY           SKY/WX    TMP DP  RH WIND       PRES   REMARKS
ABILENE        MOSUNNY   80  49  33 N20G28    29.85R
AMARILLO       CLOUDY    48  44  86 N18       30.08R
AUSTIN         CLOUDY    70  66  87 CALM      29.93F
BROWNSVILLE    CLOUDY    84  74  71 SE17G24   29.88F
CORPUS CHRISTI CLOUDY    80  70  71 SE25      29.88S
DALLAS FTW     CLOUDY    63  61  93 SE12      29.90F
DEL RIO        SUNNY     85  49  28 VRB3G18   29.89F
EL PASO        MOSUNNY   71  22  15 NW12G21   30.06F
HOUSTON INT    PTSUNNY   72  68  87 SE14      29.98F
LUBBOCK        CLOUDY    53  46  77 N21       30.04R
SAN ANGELO     SUNNY     83  36  18 NW20      29.90S
SAN ANTONIO    CLOUDY    73  66  78 S9        29.92F
WACO           CLOUDY    66  62  87 S7        29.93F
WICHITA FALLS  LGT RAIN  47  45  93 NE14      30.13R FOG
$$
...OTHER LOCATIONS IN NEW MEXICO...

CITY           SKY/WX    TMP DP  RH WIND       PRES   REMARKS
ALAMOGORDO     MOSUNNY   66  25  20 NW16G25   30.10F
ALBUQUERQUE    MOSUNNY   57  29  34 E7        30.12F
CANNON AFB     MOSUNNY   56  42  60 NE17G25   30.09S
CLOVIS         MOSUNNY   55  40  56 N20G28    30.10S
HOLLOMAN AFB   SUNNY     69  26  20 N18G28    30.11F
ROSWELL        MOSUNNY   73  25  16 NW18G29   30.01F
RUIDOSO        MOSUNNY   55  23  28 NW22G30   30.16S
SANTA FE       SUNNY     58  23  26 NW13G18   30.09F
TRUTH OR CONSE SUNNY     72  25  17 N16       30.08F
TUCUMCARI      SUNNY     59  39  47 NE10      30.05F
$$




USA.gov is the U.S. government's official web portal to all federal, state and local government web resources and services.